Location: Bittkow
(50.3000°N, 19.0000°E)
Time: 23:30:08
(UTC+00:00)

Cosmos 1500 - Pass Details

Date: 19 September 2020
Orbit: 498 x 520 km, 82.5° (Epoch: 30 October)

Event Time Altitude Azimuth Distance (km) Brightness Sun altitude
Rises 02:54:04 0° 345° (NNW) 2,660 6.9 -15.1°
Reaches altitude 10° 02:56:15 10° 341° (NNW) 1,764 5.9 -14.8°
Maximum altitude 03:00:01 52° 265° (W) 650 3.3 -14.3°
Drops below altitude 10° 03:03:44 10° 188° (S) 1,739 5.6 -13.7°
Sets 03:05:52 0° 184° (S) 2,617 6.6 -13.4°
